CAPE
29 42 17 13 35 70 119 247 301 243 298 371 402 463 257 75 15 199 222 389 868 1371 1144 1206 1244 1348 1225 929 687 274 61 329 624 218 161 33 0 0 0 42 80 120 263
10 4 17 13 22 65 156 254 365 399 415 537 532 466 311 30 129 174 352 638 1065 1318 1390 1180 1343 1080 887 602 252 186 674 588 280 521 74 68 9 0 0 21 3 45 95
66 0 15 41 84 84 153 261 435 578 655 784 682 474 316 252 275 341 383 629 1106 1428 1524 1303 1145 963 1036 848 503 21 235 549 522 508 261 47 30 0 0 0 0 1 79
91 2 0 23 71 138 161 217 382 617 694 743 671 490 204 72 223 457 494 596 1002 1685 1396 1529 1217 1329 1272 859 782 102 9 66 532 668 721 491 108 2 4 0 0 0 4
361 137 7 10 32 129 164 198 356 457 503 589 606 428 251 138 155 512 699 672 947 1316 1423 1218 1059 1244 1278 1284 913 361 505 24 692 792 609 486 39 0 77 65 0 5 47
612 366 94 6 20 141 195 202 256 348 415 492 516 351 287 314 546 678 563 508 580 974 1101 799 879 1483 1574 1403 1231 616 726 367 672 789 719 513 446 292 255 283 256 204 257
693 678 265 45 68 128 282 263 251 290 343 411 459 486 448 343 577 648 784 785 657 835 942 820 1000 1359 1728 1469 916 526 285 49 0 660 885 945 658 213 47 115 99 3 121
412 603 469 236 189 217 354 380 361 386 442 428 389 467 537 624 1002 722 676 774 815 800 799 742 1064 1201 1160 1110 721 598 500 475 716 806 1208 1006 479 327 11 0 12 161 302
561 632 530 381 246 366 402 556 506 550 603 541 643 561 558 508 969 1519 1566 1259 1118 888 616 750 938 1174 1112 890 638 19 8 84 1054 1227 1452 1253 806 495 148 27 75 69 151
382 558 669 534 356 340 612 800 761 662 771 906 948 959 905 736 657 1055 1451 1574 1402 1241 1439 1224 981 1016 1001 862 572 194 300 22 0 945 1301 969 293 184 97 45 0 0 6
486 635 751 610 580 448 536 945 1089 966 933 1125 1259 1380 1482 1651 1524 1233 1024 712 604 524 1205 1157 890 624 315 138 155 657 521 145 340 859 895 745 206 209 98 4 9 68 208
1283 1369 1457 1305 939 698 526 767 1160 1399 1265 1274 1455 1466 1869 2063 1619 944 517 122 12 17 151 492 828 562 462 229 114 659 1224 845 747 753 652 560 506 547 419 459 45 352 547
1594 1491 1515 1496 1345 1204 901 705 841 1440 1650 1600 1753 1820 1628 1736 1405 599 125 17 24 42 77 24 133 461 225 315 687 707 589 445 600 620 547 500 178 338 467 591 722 464 392
1667 1702 1941 1766 1581 1396 1276 1169 1018 1109 1586 1518 1511 1583 1674 1537 793 313 90 132 87 37 14 0 0 0 49 57 34 30 46 45 43 71 32 50 43 207 518 441 293 125 20
721 734 685 1153 682 578 1075 1187 1243 957 760 950 1040 795 288 38 17 4 0 2 66 30 17 9 1 1 6 13 9 0 0 2 1 2 4 3 8 6 0 16 40 1 0
474 735 1046 679 635 479 320 678 1085 503 40 73 12 0 0 0 7 1 0 0 0 0 9 43 0 0 0 7 4 1 0 0 0 0 0 0 0 0 0 0 0 0 0
203 172 198 591 762 502 894 946 684 237 4 0 0 0 0 2 37 40 6 10 33 44 64 16 18 0 0 0 0 0 0 0 0 0 0 0 0 0 0 0 0 0 0
397 298 246 928 2095 1754 1132 781 433 211 93 1 2 2 20 30 17 9 4 9 35 85 137 23 0 0 0 0 0 0 0 0 0 0 0 0 0 0 0 0 0 0 0
795 467 495 632 1586 1843 1175 659 298 247 296 130 44 2 22 2 6 61 91 136 102 40 12 0 0 0 0 0 0 0 0 0 0 0 0 0 0 0 0 0 0 0 0
180 958 1074 1290 1493 1672 1054 629 388 288 218 32 1 5 13 54 63 44 36 94 65 2 0 0 0 0 0 0 0 0 0 0 0 0 0 0 0 0 0 0 0 0 0
0 104 351 392 296 40 0 244 279 407 277 282 320 193 162 100 9 3 0 0 8 0 0 0 0 0 0 0 0 0 0 0 0 0 0 0 0 0 0 0 0 0 0
0 0 0 0 0 0 0 82 311 136 118 165 115 28 27 0 0 0 0 0 0 0 0 0 0 0 0 0 0 0 0 0 0 0 0 0 0 0 0 0 0 0 0
0 0 0 0 0 0 0 90 112 49 0 0 0 0 0 0 0 0 0 0 0 0 0 0 0 0 0 0 0 0 0 0 0 0 0 0 0 0 0 0 0 0 0
0 0 0 0 0 0 12 160 21 0 0 0 0 0 0 0 0 0 0 0 0 0 0 0 0 0 0 0 0 0 0 0 0 0 0 0 0 0 0 0 0 0 0
0 0 0 0 0 0 13 74 39 2 0 0 0 0 0 0 0 0 0 0 0 0 0 0 0 0 0 0 0 0 0 0 0 0 0 0 0 0 0 0 0 1 0
28 0 3 27 16 29 3 12 5 0 0 0 0 0 0 0 0 0 0 0 0 0 0 0 0 0 0 0 0 0 0 0 0 0 0 0 0 0 0 0 0 0 0
CIN
-403 -405 -455 -476 -510 -506 -409 -336 -280 -269 -257 -211 -179 -163 -196 -286 -326 -192 -160 -92 -30 -52 -19 -44 -47 -59 -51 -61 -87 -91 -140 -130 -123 -132 -198 -145 0 -2 0 -298 -257 -232 -201
-457 -244 -438 -490 -480 -474 -444 -389 -318 -274 -229 -177 -167 -181 -204 -352 -251 -198 -117 -51 -35 -35 -32 -39 -38 -65 -71 -74 -129 -122 -56 -38 -121 -59 -192 -196 -101 0 0 -346 -66 -260 -271
-334 0 -408 -455 -486 -447 -432 -433 -347 -285 -254 -203 -184 -209 -246 -249 -203 -155 -103 -54 -39 -38 -38 -53 -51 -45 -58 -50 -87 -104 -89 -31 -76 -118 -71 -103 -160 0 0 0 -102 -141 -325
-319 -197 -59 -434 -472 -469 -448 -408 -372 -317 -304 -273 -230 -234 -286 -317 -226 -123 -73 -45 -41 -36 -43 -36 -54 -41 -51 -58 -60 -151 -27 -49 -26 -68 -81 -130 -160 -156 -126 0 0 0 -160
-246 -281 -470 -445 -500 -479 -447 -462 -406 -359 -347 -323 -304 -303 -304 -306 -241 -121 -65 -66 -50 -34 -44 -40 -33 -44 -37 -33 -45 -90 -85 -8 -48 -48 -56 -91 -234 0 -153 -112 0 -209 -250
-223 -247 -383 -514 -529 -488 -487 -494 -459 -408 -399 -372 -351 -353 -316 -262 -167 -104 -105 -84 -78 -42 -45 -36 -42 -41 -35 -38 -40 -75 -87 -92 -70 -63 -61 -56 -37 -94 -118 -90 -103 -107 -149
-215 -221 -339 -405 -473 -481 -463 -503 -483 -428 -456 -427 -387 -352 -311 -289 -184 -129 -73 -46 -57 -48 -49 -44 -46 -45 -40 -41 -80 -92 -98 -128 0 -56 -51 -49 -41 -107 -171 -128 -128 -137 -153
-175 -194 -270 -357 -378 -389 -456 -469 -479 -423 -436 -426 -402 -368 -311 -267 -171 -153 -119 -80 -58 -46 -48 -52 -54 -44 -67 -84 -104 -121 -123 -108 -79 -58 -49 -41 -60 -104 -138 0 -102 -54 -55
-138 -151 -195 -305 -371 -405 -406 -432 -472 -434 -397 -403 -369 -358 -324 -311 -209 -111 -76 -62 -56 -50 -49 -60 -48 -49 -70 -78 -106 -189 -38 -170 -42 -46 -41 -50 -65 -80 -153 -221 -192 -94 -47
-125 -135 -172 -237 -293 -369 -369 -466 -443 -401 -356 -339 -317 -277 -244 -254 -232 -156 -85 -66 -51 -43 -33 -44 -50 -85 -98 -94 -93 -156 -132 -189 0 -42 -28 -55 -138 -140 -215 -238 0 0 -151
-261 -248 -237 -252 -270 -287 -358 -383 -384 -373 -374 -335 -298 -247 -228 -173 -160 -147 -111 -161 -135 -82 -66 -67 -71 -80 -123 -177 -182 -87 -94 -142 -52 -26 -29 -71 -108 -103 -204 -254 -172 -117 -141
-276 -280 -271 -334 -349 -383 -335 -325 -329 -366 -345 -301 -301 -276 -215 -159 -160 -179 -171 -216 -319 -367 -309 -105 -48 -71 -71 -137 -156 -71 -35 -37 -35 -40 -44 -59 -87 -84 -107 -94 -191 -96 -79
-257 -242 -197 -224 -308 -347 -437 -510 -423 -344 -347 -306 -302 -258 -275 -180 -170 -226 -320 -376 -530 -429 -299 -232 -131 -50 -63 -109 -94 -89 -65 -70 -75 -69 -51 -60 -110 -85 -88 -63 -49 -103 -99
-244 -262 -265 -328 -364 -342 -320 -384 -467 -479 -358 -392 -367 -288 -247 -196 -288 -333 -386 -430 -403 -365 -298 0 0 0 -134 -199 -223 -232 -201 -200 -193 -200 -222 -199 -175 -98 -48 -57 -106 -168 -105
-123 -167 -180 -262 -265 -201 -282 -405 -452 -562 -526 -467 -413 -453 -562 -632 -581 -134 0 -25 -423 -380 -258 -118 -11 -39 -178 -152 -238 0 -7 -99 -53 -57 -53 -60 -235 -202 0 -137 -183 -55 0
-212 -188 -219 -301 -329 -298 -399 -580 -445 -467 -734 -663 -732 0 0 -2 -644 -228 0 0 0 -6 -350 -226 0 0 0 -232 -233 -207 0 0 0 0 0 0 0 0 0 0 0 0 0
-225 -200 -291 -325 -326 -365 -379 -385 -375 -497 -656 0 0 0 0 -256 -603 -578 -623 -482 -393 -325 -247 -258 -73 0 0 0 0 0 0 0 0 0 0 0 0 0 0 0 0 0 0
-226 -349 -476 -288 -76 -162 -292 -424 -441 -492 -539 -289 -689 -726 -669 -653 -669 -682 -620 -548 -404 -262 -163 -162 0 0 0 0 0 0 0 0 0 0 0 0 0 0 0 0 0 0 0
-270 -364 -367 -288 -59 -17 -108 -212 -294 -385 -406 -390 -486 -300 -564 -104 -504 -524 -430 -351 -375 -427 -398 0 0 0 0 0 0 0 0 0 0 0 0 0 0 0 0 0 0 0 0
-428 -230 -253 -164 -42 -10 -58 -93 -110 -279 -411 -597 -45 -309 -424 -380 -456 -471 -501 -454 -396 -112 0 0 0 0 0 0 0 0 0 0 0 0 0 0 0 0 0 0 0 0 0
0 -259 -374 -329 -300 -430 0 -14 -116 -215 -250 -301 -229 -261 -195 -340 -315 -372 0 0 -418 0 0 0 0 0 0 0 0 0 0 0 0 0 0 0 0 0 0 0 0 0 0
0 0 0 0 0 0 0 -1 -105 -265 -253 -287 -330 -232 -323 -151 0 0 0 0 0 0 0 0 0 0 0 0 0 0 0 0 0 0 0 0 0 0 0 0 0 0 0
0 0 0 0 0 0 0 -191 -91 -286 -83 0 0 0 0 0 0 0 0 0 0 0 0 0 0 0 0 0 0 0 0 0 0 0 0 0 0 0 0 0 0 0 0
0 0 0 0 0 0 -9 -52 -199 0 0 0 0 0 0 0 0 0 0 0 0 0 0 0 0 0 0 0 0 0 0 0 0 0 0 0 0 0 0 0 0 0 0
0 0 0 0 0 0 -39 -26 -86 -104 0 0 0 0 0 0 0 0 0 0 0 0 0 0 0 0 0 0 0 0 0 0 0 0 0 0 0 0 0 0 0 -50 -33
-164 0 0 -1 -21 -10 -55 -28 -53 -13 0 0 0 0 0 0 0 0 0 0 0 0 0 0 0 0 0 0 0 0 0 0 0 0 0 0 0 0 0 0 0 0 0
Wind_Speed
17 18 18 18 18 18 18 17 16 16 12 7 6 3 6 4 8 16 15 6 7 7 12 5 4 6 9 9 10 11 9 9 6 11 13 13 14 7 4 5 6 29 23
18 17 16 15 16 17 17 17 16 15 14 9 6 2 4 8 10 12 9 4 2 7 9 4 4 4 5 9 9 8 11 10 5 10 14 13 13 3 6 9 14 6 22
18 19 17 15 15 15 16 16 16 15 14 11 5 3 4 7 2 16 16 6 2 7 8 5 2 2 5 5 6 7 9 10 6 5 9 12 8 11 6 5 14 8 12
20 17 16 14 14 16 15 15 15 15 13 13 9 8 5 5 7 3 13 26 3 6 8 8 4 4 3 7 5 11 11 9 10 11 9 14 13 10 17 15 8 4 26
22 18 19 17 14 13 13 14 14 15 13 13 13 11 6 5 4 6 14 18 9 4 6 7 7 3 9 10 6 9 8 10 13 7 10 11 13 15 18 17 13 19 19
23 20 19 15 11 10 11 12 13 13 14 14 13 12 9 6 3 9 11 17 16 6 7 5 4 6 7 8 5 7 11 12 13 14 12 11 13 14 12 11 14 13 14
16 19 15 13 11 12 11 13 12 13 12 13 12 12 11 8 6 5 14 20 21 22 10 4 6 14 14 13 15 13 14 18 16 13 11 13 15 11 12 9 12 17 20
14 13 14 13 12 12 13 13 13 12 12 13 14 13 12 9 5 5 7 15 20 24 21 21 17 15 17 15 12 13 19 25 23 25 25 24 12 8 12 9 4 9 14
5 9 10 12 11 9 14 15 14 12 11 10 10 12 13 12 8 5 13 20 24 26 26 26 23 18 17 12 11 18 14 19 23 21 25 22 16 14 11 10 6 4 9
4 3 6 7 9 9 13 12 12 13 12 10 8 8 12 10 6 6 13 23 27 29 28 26 24 19 14 12 12 11 12 8 17 13 14 18 17 14 13 16 7 5 9
16 14 10 9 5 5 6 12 14 13 11 12 9 8 2 4 5 7 10 17 23 38 19 24 24 18 18 17 16 15 13 13 12 14 12 12 8 7 11 7 4 10 8
13 17 16 18 19 18 9 7 12 13 14 11 6 4 2 2 2 3 3 12 13 22 25 21 31 30 25 23 18 20 17 18 17 16 13 11 9 9 8 8 10 11 13
13 15 16 20 24 22 18 22 26 11 11 10 8 5 3 3 2 3 12 26 21 21 25 22 28 33 24 22 18 16 17 17 17 16 15 11 10 7 9 15 17 13 12
17 17 21 17 20 23 24 22 27 28 15 12 10 7 3 3 3 8 14 15 15 15 18 20 16 11 11 12 15 17 16 16 16 15 16 16 18 15 8 7 10 13 14
17 17 18 15 14 17 19 25 19 21 19 13 10 7 3 4 7 7 9 13 16 17 19 17 17 14 8 16 16 18 19 19 21 19 18 19 17 17 13 12 11 14 17
27 25 27 29 26 22 23 26 17 16 12 10 8 8 7 5 7 9 9 9 13 16 17 15 12 9 9 10 14 17 18 16 15 15 16 15 17 17 15 13 13 16 18
32 29 30 31 28 22 19 12 13 12 10 9 8 6 6 7 9 9 9 12 13 14 16 16 13 13 13 14 10 10 13 14 12 14 14 15 17 19 18 17 16 16 16
32 34 35 32 25 20 15 11 10 10 8 9 9 9 9 8 8 9 10 11 13 14 14 15 15 14 14 13 13 12 12 12 14 14 15 18 18 20 20 18 18 19 19
31 31 32 29 26 22 19 16 12 11 8 5 6 7 8 6 7 8 9 12 12 13 13 13 12 13 14 14 13 13 14 14 16 16 15 15 17 19 19 20 21 22 24
31 30 28 25 24 22 18 17 22 14 11 12 8 6 6 2 5 7 9 12 13 14 14 14 13 12 12 14 15 15 15 15 15 15 16 19 20 23 24 25 26 28 30
30 27 27 25 24 20 24 32 20 18 11 7 6 5 4 4 5 7 9 10 11 12 14 13 13 11 11 13 16 17 17 17 17 17 20 22 25 28 28 27 25 24 22
36 33 32 26 26 32 32 41 19 12 8 4 3 3 2 4 6 8 11 12 12 12 13 14 14 13 11 13 15 16 17 19 20 22 24 27 29 30 28 26 25 25 22
39 37 38 39 33 26 13 6 6 8 6 3 2 3 2 4 7 8 9 11 12 13 14 13 13 12 11 13 15 18 19 21 22 23 26 26 27 26 24 23 21 21 21
40 40 41 38 35 28 21 17 12 9 4 4 4 0 1 5 8 10 10 10 11 12 12 12 13 13 13 15 17 19 20 21 22 24 25 25 22 21 22 22 21 22 24
45 44 41 39 36 25 11 15 16 10 6 6 5 3 3 5 6 8 9 10 13 13 11 11 12 13 16 17 17 18 20 22 24 25 24 26 24 25 26 26 27 27 29
38 42 39 14 8 11 12 8 9 10 8 4 5 5 5 7 8 9 10 14 13 13 13 11 13 15 16 16 18 19 20 22 24 24 27 27 25 26 28 30 31 32 32
Wind_Direction
167 163 163 164 164 163 164 164 165 169 170 173 177 186 182 197 184 188 188 172 171 170 172 142 58 22 7 1 13 4 3 350 46 16 8 354 350 19 105 98 310 232 265
175 168 163 158 164 164 165 166 169 168 172 176 180 280 172 174 176 181 181 164 101 146 162 150 133 53 18 9 5 23 351 12 75 1 352 9 7 63 132 162 175 299 272
182 178 169 164 161 166 169 169 169 169 169 170 169 309 314 316 258 184 295 312 134 157 167 158 113 83 11 14 32 29 10 349 23 38 12 12 56 20 33 144 179 301 297
192 184 177 168 165 170 170 169 167 166 166 165 167 171 176 180 175 182 301 279 189 180 174 177 149 143 33 357 28 348 346 1 351 344 354 340 348 11 335 343 322 173 266
193 186 186 184 175 170 167 169 167 168 165 166 170 172 174 177 184 295 302 301 315 197 181 175 177 31 338 338 0 342 351 339 328 354 348 347 343 336 314 326 324 286 281
193 193 191 185 183 176 174 171 172 172 169 169 169 173 180 179 215 294 300 301 308 305 203 204 184 346 336 337 339 347 328 331 324 323 330 338 336 336 342 333 316 311 300
191 191 192 194 194 188 183 178 177 179 174 177 178 179 180 187 201 220 298 294 298 301 306 237 311 316 316 316 315 320 319 317 314 323 328 329 323 339 338 345 294 300 284
185 196 198 198 195 194 188 185 183 184 183 179 184 183 183 183 206 233 281 299 300 301 304 301 303 306 313 304 305 310 305 295 296 291 296 302 331 334 329 336 347 318 304
166 189 203 206 215 217 196 192 190 191 191 191 185 188 190 190 199 233 297 296 300 302 300 299 301 298 301 296 295 301 306 303 298 305 301 308 320 314 321 321 338 317 321
39 175 211 231 251 234 209 202 201 202 197 198 192 187 185 189 209 305 312 309 306 306 303 301 300 301 293 285 296 297 309 301 312 316 314 318 314 318 320 306 325 318 316
356 350 350 330 294 249 221 210 212 210 208 201 197 188 194 319 325 317 323 322 322 303 302 294 289 288 284 280 290 290 298 306 306 314 320 322 323 321 322 327 346 320 339
9 10 357 353 344 323 304 241 219 221 218 218 237 262 295 324 334 352 338 338 333 341 326 323 295 285 274 276 279 290 297 300 304 311 314 316 312 309 317 310 311 315 318
356 351 351 339 351 354 337 312 292 253 253 254 262 261 252 254 259 305 315 329 340 350 348 329 313 271 268 270 282 291 296 301 306 311 313 313 308 313 318 302 299 310 314
346 341 329 338 348 345 340 325 304 293 280 265 258 260 255 273 298 332 340 352 358 5 9 18 20 341 289 293 294 298 303 306 313 319 317 314 310 315 335 323 321 316 314
335 331 326 331 343 332 322 331 326 303 289 270 254 251 277 322 333 6 26 20 26 33 29 39 50 43 320 304 305 307 305 308 301 307 319 311 310 313 328 328 329 322 317
316 320 314 320 320 311 307 311 314 317 292 263 254 273 285 340 354 1 15 33 28 27 31 40 49 65 25 332 313 313 296 308 307 317 314 319 324 329 333 335 327 322 316
316 319 317 318 316 316 309 314 318 304 298 291 307 317 339 329 334 349 2 4 12 20 30 39 35 40 57 37 35 332 329 308 332 320 322 324 328 326 324 326 324 325 327
322 319 319 321 325 322 321 311 304 291 279 283 296 305 309 321 338 350 355 6 13 18 28 39 49 42 25 23 13 2 358 354 340 338 338 329 329 326 319 323 321 317 319
322 320 319 320 314 313 308 295 283 284 280 272 292 301 304 318 332 345 10 4 8 15 24 30 35 35 35 21 15 6 2 1 347 346 352 352 343 335 332 329 321 318 309
324 322 320 318 316 313 302 281 277 276 272 280 290 304 304 359 15 16 15 355 2 11 16 18 22 36 35 18 15 13 1 352 349 349 344 337 334 327 323 319 315 312 307
319 321 316 314 310 320 314 275 254 266 267 263 283 305 315 353 11 8 13 14 11 15 7 5 10 16 20 11 6 5 359 355 352 349 336 331 325 320 317 319 319 318 322
314 310 307 301 299 301 305 287 247 249 261 265 293 269 45 10 28 15 2 5 360 2 3 357 353 356 3 1 358 0 358 353 344 338 334 328 323 320 321 322 322 322 326
315 310 304 301 302 305 297 314 263 266 270 271 202 126 60 21 11 19 19 13 9 1 3 2 356 358 7 358 354 349 347 344 341 338 333 333 332 333 334 333 334 337 333
318 312 307 300 295 294 287 228 224 219 175 244 244 262 53 31 30 40 31 19 6 4 11 7 0 359 354 350 344 342 343 343 341 337 336 337 341 346 345 346 343 337 332
327 317 306 299 294 290 230 167 153 159 173 218 252 297 6 12 25 15 25 18 9 19 22 15 9 358 348 348 353 349 343 340 337 333 334 331 330 328 328 329 330 329 325
346 354 338 338 101 102 129 132 124 168 156 189 252 292 8 7 351 353 356 351 3 6 11 22 16 2 358 360 353 347 344 342 339 335 331 328 326 325 325 324 322 322 321